Location: Kershaw
(34.5481°N, 80.5823°W)
Time: 21:53:13
(UTC+00:00)

Vanguard 2 Rocket - Pass Details

Date: 01 October 2022
Orbit: 555 x 3321 km, 32.9° (Epoch: 28 November)

Event Time Altitude Azimuth Distance (km) Brightness Sun altitude
Exits shadow 08:23:59 16° 113° (ESE) 1,769 8.7 -35.6°
Drops below altitude 10° 08:24:51 10° 111° (ESE) 2,097 9.2 -35.5°
Sets 08:26:48 0° 108° (ESE) 2,875 10.1 -35.1°
